Regional Weather Roundup
Issued by NWS

Home | Current Version | Previous Version | Text Only | Print | Product List | Glossary On
Versions: 1 2 3 4 5 6 7 8 9 10 11 12 13 14 15 16 17 18 19 20 21 22 23 24 25 26 27 28 29 30 31 32 33 34 35 36 37 38 39 40 41 42 43 44 45 46 47 48 49 50
000
ASUS42 KTBW 311210
RWRFL
FLORIDA REGIONAL WEATHER ROUNDUP
NATIONAL WEATHER SERVICE TAMPA BAY RUSKIN FL
700 AM EST SAT JAN 31 2015

NOTE: "FAIR" INDICATES FEW OR NO CLOUDS BELOW 12,000 FEET WITH NO
SIGNIFICANT WEATHER AND/OR OBSTRUCTIONS TO VISIBILITY.


FLZ001>010-012>015-112-114-115-311300-
PANHANDLE FLORIDA

CITY           SKY/WX    TMP DP  RH WIND       PRES   REMARKS
PENSACOLA      CLEAR     39  27  62 NE6       30.30F WCI  35
PENSACOLA NAS  CLEAR     41  28  60 NE8       30.30S WCI  36
MILTON NAS     CLEAR     35  25  66 NE6       30.31S WCI  30
CRESTVIEW      CLEAR     29  25  85 CALM      30.33S
DUKE FIELD     FAIR      27  25  90 CALM      30.32S
VALPARAISO     PTCLDY    34  27  75 NE6       30.31S WCI  29
MARY ESTHER    CLEAR     38  23  54 NE8       30.31R WCI  32
TRI COUNTY     FAIR      31  29  92 CALM      30.35R
PANAMA CITY    FAIR      37  28  70 N3        30.32R
TYNDALL AFB    CLEAR     40  29  65 NE6       30.33R WCI  36
APALACHICOLA   CLEAR     40  30  67 NE7       30.31R WCI  35

STATION/POSITION SKY/WX   TEMP    WIND        PRES    WAVE   SWELL
                          AIR SEA DIR/SP/G            HT/PER HT/PER
                          (F)     (DEG/KT/KT) (MB)    (FT/S) (FT/S)
30.1N   87.6W              52 62   60/ 19/ 23 1025.0R   4/ 5
29.2N   88.2W              59 68   80/ 17/ 21 1024.6    4/ 5
28.7N   86.0W              59 69   80/ 16/ 19 1024.7R   5/ 6
PANAMA CITY BEAC           42 59   40/  6/  9 1026.5R
CAPE SAN BLAS    NOT AVBL
TOWER C                    51      60/ 19/ 21 1025.7R
28.5N   84.5W              57 67   70/ 17/ 21 1024.5R   5/ 5

$$
FLZ011-016>038-118-127-128-134-139-239-311300-
NORTH FLORIDA

CITY           SKY/WX    TMP DP  RH WIND       PRES   REMARKS
MARIANNA       CLEAR     32  28  85 CALM      30.34R
TALLAHASSEE    PTCLDY    30  24  78 NW3       30.32R
PERRY          PTCLDY    37  29  73 CALM      30.32R
CROSS CITY       N/A     32  29  88 CALM      30.31R
LAKE CITY      FAIR      36  32  87 CALM      30.30R
GAINESVILLE    CLEAR     35  30  82 NW3       30.30R
MAYPORT NAS    CLEAR     52  38  58 NE17      30.29R
JACKSONVILLE   MOCLDY    36  32  85 N5        30.31R WCI  32
JAX NAS        PTCLDY    44  34  67 NW6       30.31R WCI  41
JAX CRAIG      CLEAR     37  33  85 N5        30.30R WCI  33
JAX CECIL      CLEAR     32  30  93 N6        30.30R WCI  26
FERNANDINA BEA FAIR      54  37  54 NE9       30.29R
ST AUGUSTINE   PTCLDY    54  41  61 NE16      30.29R

STATION/POSITION SKY/WX   TEMP    WIND        PRES    WAVE   SWELL
                          AIR SEA DIR/SP/G            HT/PER HT/PER
                          (F)     (DEG/KT/KT) (MB)    (FT/S) (FT/S)
SHELL POINT      NOT AVBL
KEATON BEACH               38      50/  5/  7 1026.5R
CEDAR KEY                  43      40/  5/  6 1025.8R
FERNANDINA                 50 56   50/  4/  7 1025.5R
30.7N   81.3W                 56                N/A     4/ 5
MAYPORT                    53 58   50/ 16/ 20 1025.6R
31.4N   80.9W              49 54   40/ 17/ 21 1026.0R   4/ 6
ST AUGUSTINE               56      30/ 18/ 20 1025.5R

$$
FLZ040-043>046-052-053-057-058-063-144-311300-
INTERIOR CENTRAL FLORIDA

CITY           SKY/WX    TMP DP  RH WIND       PRES   REMARKS
OCALA          CLEAR     36  28  75 N5        30.28R WCI  32
THE VILLAGES     N/A     45  36  70 N6        30.18R WCI  41
LEESBURG       MOCLDY    43  36  76 N5        30.27R WCI  40
SANFORD        MOCLDY    48  40  73 N7        30.25R WCI  45
ORLANDO EXEC   PTCLDY    50  38  63 N6        30.25R
ORLANDO INTL   MOCLDY    48  40  73 N8        30.25R WCI  44
KISSIMMEE      CLEAR     48  41  76 N7        30.25
WINTER HAVEN   CLEAR     47  38  71 N7        30.26R WCI  44
LAKELAND       CLEAR     45  37  76 NE7       30.25R WCI  41
BARTOW         FAIR      46  37  71 NE6       30.25S WCI  43
OKEECHOBEE     CLEAR     43  41  93 N5        30.22R WCI  40

$$
FLZ041-047-054-059-064-141-147-311300-
EAST CENTRAL FLORIDA

CITY           SKY/WX    TMP DP  RH WIND       PRES   REMARKS
ORMOND BEACH   CLEAR     39  37  93 CALM      30.26
DAYTONA BEACH  MOCLDY    43  39  86 W3        30.26R
DELAND         PTSUNNY  N/A N/A N/A NW3       30.27R
NEW SMYRNA BEA PTCLDY    57  46  67 NE12      30.25
JFK SPACE CTR  PTCLDY    48  44  88 NW6       30.22R
TITUSVILLE     CLEAR     43  41  93 NW7       30.23  WCI  39
CAPE CANAVERAL PTCLDY    51  47  86 N5        30.22R
PATRICK AFB    PTCLDY    55  49  81 N8        30.23R
MELBOURNE      PTCLDY    46  43  89 NW6       30.23R WCI  43
VERO BEACH     PTCLDY    49  45  86 NW7       30.22R
FT PIERCE      CLEAR     50  46  86 NW6       30.21R
STUART         PTCLDY    54  48  82 NW7       30.21R

STATION/POSITION SKY/WX   TEMP    WIND        PRES    WAVE   SWELL
                          AIR SEA DIR/SP/G            HT/PER HT/PER
                          (F)     (DEG/KT/KT) (MB)    (FT/S) (FT/S)
28.5N   80.2W              64 72   40/ 16/ 19 1022.9R
28.9N   78.5W              62 73   10/ 17/ 21 1023.3R   6/ 8   2/11
TRIDENT PIER     NOT AVBL
28.4N   80.5W                 62                N/A     2/ 8
27.6N   80.2W                 70                N/A     4/ 4

$$
FLZ050-056-061-142-242-148-248-149-249-151-251-155-255-
160-260-311300-
WEST CENTRAL FLORIDA

CITY           SKY/WX    TMP DP  RH WIND       PRES   REMARKS
CRYSTAL RIVER  FAIR      41  32  70 NE3       30.28R
INVERNESS      FAIR      43  32  65 NE6       30.28R WCI  39
BROOKSVILLE    PTCLDY    43  33  68 NE5       30.27R WCI  40
ZEPHYRHILLS    FAIR      37  34  87 CALM      30.27R
CLEARWATER     CLEAR     50  38  63 NE12      30.25R
TAMPA INTL     PTCLDY    47  34  60 NE8       30.25S WCI  43
TAMPA EXEC     CLEAR     41  36  81 CALM      30.26S
PLANT CITY       N/A    N/A N/A N/A MISG        N/A
MACDILL AFB    CLEAR     45  38  76 NE10      30.24R WCI  40
PETER O KNIGHT CLEAR     48  37  66 NE12      30.25R WCI  43
ST PETERSBURG  CLEAR     53  41  63 NE15      30.23S
SARASOTA       CLEAR     46  37  71 NE8       30.22R WCI  42
VENICE         FAIR      45  39  81 NE8       30.24R WCI  40

STATION/POSITION SKY/WX   TEMP    WIND        PRES    WAVE   SWELL
                          AIR SEA DIR/SP/G            HT/PER HT/PER
                          (F)     (DEG/KT/KT) (MB)    (FT/S) (FT/S)
CEDAR KEY                  43      40/  5/  6 1025.8R
28.5N   84.5W              57 67   70/ 17/ 21 1024.5R   5/ 5
27.3N   84.3W                 71                N/A     6/ 7
CLEARWATER BEACH           48 60   50/  8/ 12 1024.0R
MIDDLE TAMPA BAY           54      70/ 19/ 22 1023.7R
VENICE                     48 62   60/  6/  8 1023.5R

$$
FLZ066-069-070-075>078-162-262-165-265-311300-
SOUTHWEST FLORIDA AND KEYS

CITY           SKY/WX    TMP DP  RH WIND       PRES   REMARKS
PUNTA GORDA    CLEAR     44  41  89 CALM      30.25R
FT MYERS       CLEAR     48  44  86 NE8       30.21R WCI  44
SOUTHWEST INTL CLEAR     49  44  83 NE7       30.22R
NAPLES         CLEAR     52  46  80 NE10      30.20R
MARCO ISLAND   MOSUNNY   52  46  82 NE8       30.20R
IMMOKALEE      SUNNY     45 N/A N/A CALM      30.22R
MARATHON       CLEAR     63  56  78 NE12      30.16R
KEY WEST NAS   CLEAR     63  56  78 NE10      30.17R
KEY WEST INTL  CLEAR     62  58  86 NE12      30.17R

STATION/POSITION SKY/WX   TEMP    WIND        PRES    WAVE   SWELL
                          AIR SEA DIR/SP/G            HT/PER HT/PER
                          (F)     (DEG/KT/KT) (MB)    (FT/S) (FT/S)
VENICE                     48 62   60/  6/  8 1023.5R
NAPLES                     54      50/  7/ 11 1023.0R
26.0N   85.6W              66 72   70/ 17/ 19 1022.0R   6/ 7
DRY TORTUGAS               67      50/ 14/ 17 1020.9R
NW FL BAY                  62      50/ 14/ 16 1021.3R
SAND KEY                   65      40/ 19/ 21 1021.2R
SOMBRERO KEY               64      30/ 18/ 20 1021.5R
LONG KEY                   63 65   30/ 18/ 21 1021.7R
MOLASSES REEF              65 75  360/ 15/ 17 1021.0R

$$
FLZ067-068-071>074-168-172>174-311300-
SOUTHEAST FLORIDA

CITY           SKY/WX    TMP DP  RH WIND       PRES   REMARKS
W PALM BEACH   PTCLDY    53  48  83 NW5       30.17R
FT LAUDER-EXEC CLEAR     57  50  77 CALM      30.18R
FT LAUDERDALE  PTCLDY    58  51  78 N7        30.17R
POMPANO BEACH  PTCLDY    59  49  69 NW5       30.18R
PEMBROKE PINES CLEAR     57  50  77 N6        30.19R
OPA LOCKA      CLEAR     58  51  78 N7        30.18R
MIAMI          PTCLDY    61  50  67 N6        30.18R
WEST KENDALL   CLEAR     56  51  84 N6        30.18R
HOMESTEAD      CLEAR     58  51  78 N8        30.17R

STATION/POSITION SKY/WX   TEMP    WIND        PRES    WAVE   SWELL
                          AIR SEA DIR/SP/G            HT/PER HT/PER
                          (F)     (DEG/KT/KT) (MB)    (FT/S) (FT/S)
PORT EVERGLADES            61     300/  6/  8 1021.4
VIRGINIA KEY               63 71  350/  6/  9 1021.9R



USA.gov is the U.S. government's official web portal to all federal, state and local government web resources and services.